Location: Caltech
(34.1382°N, 118.1253°W)
Time: 14:58:27
(UTC-07:00)

Meteor 2-4 Rocket - Visible Passes

Search period start: 25 July 2016 00:00
Search period end: 04 August 2016 00:00
Orbit: 798 x 910 km, 81.2° (Epoch: 24 July)

Date Brightness Start Highest point End Pass type
(mag) Time Alt. Az. Time Alt. Az. Time Alt. Az.
25 Jul 5.4 00:53:21 10° NNW 00:55:59 27° NW 00:55:59 27° NW visible
25 Jul 5.7 23:00:44 10° NNE 23:02:57 16° NE 23:02:57 16° NE visible
26 Jul 5.3 00:42:17 10° NNW 00:45:01 29° NW 00:45:01 29° NW visible
26 Jul 5.7 22:49:54 10° NNE 22:52:01 15° NE 22:52:01 15° NE visible
27 Jul 5.2 00:31:13 10° NNW 00:34:05 30° NW 00:34:05 30° NW visible
27 Jul 5.7 22:39:05 10° NE 22:41:05 14° ENE 22:41:05 14° ENE visible
28 Jul 5.2 00:20:10 10° NNW 00:23:10 32° NNW 00:23:10 32° NNW visible
28 Jul 5.8 22:28:19 10° NE 22:30:10 14° ENE 22:30:10 14° ENE visible
29 Jul 5.1 00:09:07 10° NNW 00:12:15 34° NNW 00:12:15 34° NNW visible
29 Jul 5.8 22:17:34 10° NE 22:19:17 13° ENE 22:19:17 13° ENE visible
29 Jul 5.0 23:58:03 10° NNW 00:01:21 37° NNW 00:01:21 37° NNW visible
30 Jul 5.8 22:06:53 10° NE 22:08:24 12° ENE 22:08:24 12° ENE visible
30 Jul 4.9 23:47:01 10° NNW 23:50:29 39° NNW 23:50:29 39° NNW visible
31 Jul 5.8 21:56:18 10° NE 21:57:32 11° ENE 21:57:32 11° ENE visible
31 Jul 4.7 23:35:59 10° NNW 23:39:36 42° NNW 23:39:36 42° NNW visible
01 Aug 5.9 21:45:56 10° ENE 21:46:41 10° ENE 21:46:41 10° ENE visible
01 Aug 4.6 23:24:57 10° N 23:28:46 46° NNW 23:28:46 46° NNW visible
02 Aug 4.4 23:13:56 10° N 23:17:56 50° NNW 23:17:56 50° NNW visible
03 Aug 4.3 23:02:54 10° N 23:07:07 54° N 23:07:07 54° N visible
